Location: Bakov nad Jizerou
(50.4784°N, 14.9394°E)
Time: 23:28:01
(UTC+00:00)

Cosmos 2221 - Pass Details

Date: 16 June 2021
Orbit: 591 x 616 km, 82.5° (Epoch: 23 July)

Event Time Altitude Azimuth Distance (km) Brightness Sun altitude
Rises 23:41:18 0° 357° (N) 2,872 7.6 -15.6°
Reaches altitude 10° 23:43:45 10° 8° (N) 1,959 6.5 -15.5°
Maximum altitude 23:47:35 30° 70° (ENE) 1,091 4.1 -15.4°
Drops below altitude 10° 23:51:21 10° 132° (SE) 1,932 4.8 -15.3°
Enters shadow 23:51:38 - 134° (SE) 2,032 4.9 -15.3°
